Location: Moscow
(55.7500°N, 37.5830°E)
Time: 23:57:12
(UTC+03:00)

COSMOS 2251 DEB - Pass Details

Date: 09 July 2022
Orbit: 738 x 847 km, 74.1° (Epoch: 17 August)

Event Time Altitude Azimuth Distance (km) Brightness Sun altitude
Rises 00:17:11 0° 324° (NW) 3,258 ? -11.8°
Reaches altitude 10° 00:21:03 10° 353° (N) 2,305 ? -11.8°
Maximum altitude 00:23:25 13° 20° (NNE) 2,090 ? -11.8°
Drops below altitude 10° 00:25:45 10° 47° (NE) 2,279 ? -11.8°
Sets 00:29:31 0° 75° (ENE) 3,187 ? -11.8°
